Marysville, OH

8:18 PM EDT on May 26, 2017 (GMT -0400)
Marysville

Weather History for KMRT - November, 2011

Change the Weather History Date:

Monday, November 14, 2011

  Actual Average (KDLZ) Record (KDLZ)
Temperature  
Mean Temperature 62 °F -  
Max Temperature 68 °F 49 °F 71 °F (1989)
Min Temperature 55 °F 30 °F 12 °F (1986)
Degree Days  
Heating Degree Days 4    
Growing Degree Days 12 (Base 50)    
Moisture  
Dew Point 55 °F    
Average Humidity 82    
Maximum Humidity 92    
Minimum Humidity 66    
Precipitation  
Precipitation 0.68 in - - ()
Sea Level Pressure  
Sea Level Pressure 29.74 in    
Wind  
Wind Speed 12 mph (SW)    
Max Wind Speed 26 mph    
Max Gust Speed 40 mph    
Visibility 8 miles    
Events      
Averages and records for this station are not official NWS values.
T = Trace of Precipitation, MM = Missing Value Source: NWS Daily Summary

Daily Weather History Graph

Daily Weather History Graph

Search for Another Location

Airport or City:

Trip Planner

Search our weather history database for the weather conditions in past years. The results will help you decide how hot, cold, wet, or windy it might be!

Date:

Astronomy

Nov. 14, 2011 Rise Set
Actual Time 7:17 AM EST 5:17 PM EST
Civil Twilight 6:48 AM EST 5:46 PM EST
Nautical Twilight 6:15 AM EST 6:19 PM EST
Astronomical Twilight 5:43 AM EST 6:51 PM EST
Moon 8:23 PM EST (11/14) 10:35 AM EST (11/14)
Length of Visible Light 10h 58m
Length of Day
9h 59m
Waning Gibbous, 87% of the Moon is Illuminated
Nov 14
Waning Gibbous
Nov 18
Last Quarter
Nov 25
New
Dec 2
First Quarter
Dec 10
Full

Hourly Weather History & Observations

Time (EST) Temp. Dew Point Humidity Pressure Visibility Wind Dir Wind Speed Gust Speed Precip Events Conditions
12:13 AM 57.9 °F 50.4 °F 76% 29.77 in 4.0 mi SW 11.5 mph 20.7 mph 0.01 in   Overcast
12:33 AM 56.5 °F 51.4 °F 83% 29.82 in 4.0 mi WNW 11.5 mph - 0.07 in   Overcast
12:54 AM 56.8 °F 52.7 °F 86% 29.78 in 2.0 mi SSW 6.9 mph - 0.26 in   Overcast
12:59 AM 56.5 °F 52.7 °F 87% 29.78 in 2.5 mi SW 5.8 mph - 0.30 in   Overcast
1:13 AM 55.8 °F 52.9 °F 90% 29.78 in 2.0 mi South 4.6 mph - 0.07 in   Overcast
1:34 AM 56.8 °F 54.0 °F 90% 29.79 in 3.0 mi SSW 9.2 mph 16.1 mph 0.15 in   Overcast
1:54 AM 57.2 °F 53.6 °F 88% 29.79 in 3.0 mi SW 15.0 mph 21.9 mph 0.21 in   Overcast
1:59 AM 57.2 °F 53.8 °F 88% 29.79 in 2.5 mi SSW 11.5 mph - 0.24 in   Overcast
2:13 AM 56.7 °F 53.8 °F 90% 29.77 in 10.0 mi SSW 10.4 mph - N/A   Overcast
2:34 AM 56.5 °F 53.8 °F 91% 29.78 in 10.0 mi SW 9.2 mph - 0.01 in   Overcast
2:54 AM 56.8 °F 54.5 °F 92% 29.80 in 7.0 mi SSW 11.5 mph - 0.01 in   Overcast
3:13 AM 56.7 °F 53.6 °F 89% 29.79 in 7.0 mi SW 12.7 mph 18.4 mph N/A   Overcast
3:34 AM 56.7 °F 53.6 °F 89% 29.78 in 7.0 mi SW 10.4 mph - 0.02 in   Overcast
3:54 AM 56.3 °F 53.6 °F 91% 29.77 in 10.0 mi SSW 10.4 mph - 0.02 in   Overcast
3:59 AM 56.3 °F 53.6 °F 91% 29.76 in 10.0 mi SSW 10.4 mph 16.1 mph 0.02 in   Overcast
4:34 AM 55.9 °F 53.2 °F 91% 29.76 in 7.0 mi SSW 10.4 mph 16.1 mph 0.01 in   Overcast
4:53 AM 56.1 °F 52.9 °F 89% 29.76 in 10.0 mi SSW 11.5 mph 17.3 mph 0.01 in   Overcast
4:59 AM 56.3 °F 52.9 °F 88% 29.76 in 10.0 mi SSW 11.5 mph 17.3 mph 0.01 in   Overcast
5:14 AM 56.3 °F 52.7 °F 88% 29.77 in 10.0 mi SW 12.7 mph - N/A   Overcast
5:34 AM 56.3 °F 52.9 °F 88% 29.78 in 7.0 mi SW 11.5 mph 16.1 mph N/A   Overcast
5:53 AM 56.7 °F 53.1 °F 88% 29.78 in 10.0 mi SW 11.5 mph - 0.01 in   Overcast
5:59 AM 56.5 °F 52.9 °F 88% 29.78 in 10.0 mi SW 10.4 mph - 0.01 in   Overcast
6:14 AM 56.7 °F 53.4 °F 89% 29.79 in 10.0 mi SW 9.2 mph - N/A   Overcast
6:34 AM 56.5 °F 53.6 °F 90% 29.79 in 7.0 mi WSW 4.6 mph - N/A   Overcast
6:59 AM 56.1 °F 53.6 °F 91% 29.79 in 3.0 mi South 4.6 mph - 0.03 in   Overcast
7:14 AM 55.9 °F 53.8 °F 92% 29.79 in 7.0 mi South 6.9 mph - N/A   Overcast
7:34 AM 56.7 °F 54.5 °F 92% 29.78 in 7.0 mi SSW 8.1 mph - 0.01 in   Overcast
7:53 AM 56.8 °F 54.5 °F 92% 29.78 in 10.0 mi South 5.8 mph - 0.01 in   Overcast
7:59 AM 56.7 °F 54.3 °F 92% 29.77 in 5.0 mi South 8.1 mph - 0.01 in   Overcast
8:33 AM 57.4 °F 54.5 °F 90% 29.77 in 10.0 mi SSW 10.4 mph 18.4 mph 0.05 in   Overcast
8:54 AM 57.6 °F 54.7 °F 90% 29.76 in 10.0 mi South 11.5 mph - 0.05 in   Overcast
8:59 AM 57.7 °F 54.5 °F 89% 29.76 in 10.0 mi South 11.5 mph - 0.05 in   Overcast
9:33 AM 59.2 °F 54.9 °F 86% 29.76 in 10.0 mi SSW 15.0 mph 19.6 mph N/A   Overcast
9:54 AM 60.8 °F 55.6 °F 83% 29.77 in 10.0 mi SW 12.7 mph 21.9 mph N/A   Overcast
10:14 AM 61.5 °F 56.3 °F 83% 29.78 in 10.0 mi WSW 11.5 mph 17.3 mph N/A   Overcast
10:33 AM 61.3 °F 56.3 °F 83% 29.78 in 10.0 mi WSW 8.1 mph - N/A   Overcast
10:54 AM 60.8 °F 56.3 °F 85% 29.77 in 10.0 mi Calm Calm - N/A   Overcast
11:33 AM 63.1 °F 57.7 °F 83% 29.75 in 10.0 mi SSW 13.8 mph 18.4 mph N/A   Overcast
11:54 AM 63.0 °F 57.2 °F 81% 29.74 in 10.0 mi SSW 13.8 mph 19.6 mph N/A   Overcast
12:14 PM 63.7 °F 57.4 °F 80% 29.73 in 10.0 mi SW 16.1 mph 26.5 mph N/A   Overcast
12:33 PM 65.1 °F 57.4 °F 76% 29.71 in 10.0 mi SW 19.6 mph 25.3 mph N/A   Overcast
12:54 PM 65.3 °F 57.0 °F 75% 29.70 in 10.0 mi SW 20.7 mph 31.1 mph N/A   Overcast
1:13 PM 65.1 °F 57.0 °F 75% 29.69 in 10.0 mi SW 19.6 mph 31.1 mph N/A   Overcast
1:33 PM 67.3 °F 57.6 °F 71% 29.67 in 10.0 mi SW 26.5 mph 38.0 mph N/A   Overcast
2:13 PM 68.0 °F 57.2 °F 68% 29.66 in 10.0 mi SW 24.2 mph 31.1 mph N/A   Overcast
2:33 PM 67.8 °F 57.4 °F 69% 29.65 in 10.0 mi SW 24.2 mph 32.2 mph N/A   Overcast
2:53 PM 68.4 °F 56.7 °F 66% 29.65 in 10.0 mi SW 21.9 mph 40.3 mph N/A   Overcast
3:13 PM 68.7 °F 57.0 °F 66% 29.64 in 10.0 mi SW 19.6 mph 38.0 mph N/A   Overcast
3:33 PM 68.5 °F 57.0 °F 67% 29.64 in 10.0 mi SW 21.9 mph 32.2 mph N/A   Mostly Cloudy
3:53 PM 68.0 °F 56.8 °F 67% 29.66 in 10.0 mi SW 26.5 mph 35.7 mph N/A   Mostly Cloudy
4:14 PM 68.0 °F 56.7 °F 67% 29.64 in 10.0 mi SW 21.9 mph 34.5 mph N/A   Scattered Clouds
4:33 PM 67.5 °F 56.7 °F 68% 29.63 in 10.0 mi SW 23.0 mph 34.5 mph N/A   Clear
4:54 PM 67.1 °F 56.7 °F 69% 29.64 in 10.0 mi SW 17.3 mph 25.3 mph N/A   Clear
5:14 PM 66.6 °F 56.7 °F 70% 29.65 in 10.0 mi SW 18.4 mph 26.5 mph N/A   Clear
5:34 PM 66.2 °F 56.7 °F 71% 29.64 in 10.0 mi SW 11.5 mph 19.6 mph N/A   Scattered Clouds
5:53 PM 65.7 °F 56.7 °F 73% 29.65 in 10.0 mi SW 11.5 mph - N/A   Mostly Cloudy
6:14 PM 66.0 °F 56.7 °F 72% 29.65 in 10.0 mi SW 16.1 mph 24.2 mph N/A   Mostly Cloudy
6:33 PM 66.2 °F 56.5 °F 71% 29.65 in 10.0 mi SW 12.7 mph 18.4 mph N/A   Overcast
6:54 PM 66.4 °F 56.5 °F 70% 29.67 in 10.0 mi SW 12.7 mph - N/A   Overcast
7:13 PM 65.7 °F 56.3 °F 72% 29.67 in 10.0 mi SW 10.4 mph - N/A   Mostly Cloudy
7:33 PM 65.7 °F 56.3 °F 72% 29.68 in 10.0 mi SW 11.5 mph - N/A   Mostly Cloudy
7:54 PM 61.2 °F 52.9 °F 74% 29.72 in 4.0 mi NW 21.9 mph 32.2 mph 0.06 in   Overcast
7:59 PM 58.8 °F 52.7 °F 80% 29.71 in 2.5 mi NW 10.4 mph 32.2 mph 0.09 in   Overcast
8:13 PM 57.9 °F 54.0 °F 87% 29.73 in 2.0 mi West 18.4 mph 29.9 mph 0.23 in   Overcast
8:33 PM 57.2 °F 54.1 °F 89% 29.73 in 2.5 mi West 12.7 mph 20.7 mph 0.42 in   Overcast
8:54 PM 56.7 °F 54.1 °F 91% 29.74 in 3.0 mi WSW 9.2 mph - 0.52 in   Overcast
8:59 PM 56.7 °F 54.1 °F 91% 29.74 in 4.0 mi WSW 11.5 mph - 0.53 in   Overcast
9:13 PM 56.5 °F 53.8 °F 91% 29.73 in 7.0 mi WSW 8.1 mph - 0.01 in   Overcast
9:33 PM 56.5 °F 53.2 °F 89% 29.75 in 10.0 mi WSW 9.2 mph - 0.02 in   Overcast
9:54 PM 56.3 °F 53.6 °F 91% 29.75 in 10.0 mi WSW 9.2 mph - 0.02 in   Overcast
9:59 PM 56.3 °F 53.6 °F 91% 29.76 in 10.0 mi WSW 10.4 mph - 0.02 in   Overcast
10:13 PM 56.3 °F 53.6 °F 91% 29.75 in 10.0 mi WSW 8.1 mph - N/A   Overcast
10:33 PM 56.3 °F 53.2 °F 89% 29.75 in 10.0 mi WSW 8.1 mph - N/A   Overcast
10:54 PM 56.3 °F 53.6 °F 91% 29.76 in 10.0 mi WSW 10.4 mph - N/A   Overcast
11:14 PM 56.3 °F 53.6 °F 91% 29.76 in 10.0 mi WSW 10.4 mph - N/A   Overcast
11:33 PM 55.6 °F 53.2 °F 92% 29.77 in 10.0 mi WSW 8.1 mph - N/A   Overcast
11:54 PM 55.8 °F 53.6 °F 92% 29.79 in 10.0 mi WSW 11.5 mph - N/A   Overcast